Wetbulb
60.01 58.64 57.80 58.70 58.78 57.05 55.44 52.72 50.48 49.12 48.96 47.81 47.28 47.15 46.82 47.24 47.32 48.23 50.96 51.60 54.27 56.27 56.67 57.40 58.26 58.98 59.41 60.97 61.51 60.90 60.02 58.53 58.40 59.33 59.19 59.65 60.47 60.21 59.90 60.83 60.25 59.82 60.19
59.50 57.50 56.74 57.31 56.94 55.66 53.66 50.62 49.50 48.82 48.42 48.13 46.34 46.25 46.09 46.46 46.64 47.61 50.28 52.07 54.43 55.81 55.32 56.67 57.10 58.15 58.25 58.73 57.49 58.35 58.25 56.50 57.13 57.19 56.95 57.23 57.73 58.37 58.26 58.20 58.02 57.86 58.22
58.76 56.56 55.59 55.68 55.42 53.87 51.33 49.71 48.69 48.63 47.34 46.63 46.12 45.42 45.55 45.89 46.43 46.67 48.95 51.97 53.25 51.97 55.39 57.95 58.46 57.87 57.64 54.71 56.21 58.85 56.35 54.23 55.23 56.36 54.84 55.72 56.34 56.89 56.87 57.17 56.41 56.37 56.59
57.89 55.52 54.05 53.95 53.89 50.85 48.79 47.93 47.00 46.35 46.38 45.71 45.17 44.88 45.35 45.73 45.50 46.13 47.41 51.07 52.81 52.43 50.44 51.25 52.92 53.35 53.44 54.04 57.61 56.58 54.35 56.79 55.37 54.17 54.34 55.77 55.94 55.79 54.95 54.96 55.61 56.13 56.56
56.81 54.33 53.02 52.84 51.74 48.35 47.28 46.75 46.00 46.00 45.37 45.26 44.99 44.82 45.14 45.13 44.92 45.01 46.52 48.52 47.15 48.87 48.51 45.42 46.56 48.18 49.21 52.82 53.82 54.14 53.97 53.50 53.13 53.56 53.06 52.33 52.93 53.07 53.37 53.59 53.51 54.01 54.57
55.86 53.60 52.09 51.29 49.40 47.17 46.25 46.31 45.62 46.02 45.80 45.05 41.72 42.73 44.14 44.93 44.56 44.90 44.60 44.17 44.21 44.29 45.24 44.84 45.97 47.00 49.11 50.50 52.05 53.12 53.16 52.89 50.95 50.23 50.53 50.45 50.90 51.31 51.76 52.20 52.42 52.32 52.72
55.19 52.92 50.97 49.98 47.92 46.22 45.80 45.98 45.48 44.40 44.68 44.21 42.21 41.83 41.79 42.55 42.77 43.46 43.95 43.24 42.01 42.36 42.87 43.58 44.42 46.86 48.10 49.57 51.57 52.76 52.05 49.89 48.70 47.92 47.85 48.49 48.95 49.44 50.04 50.45 50.85 51.12 51.50
54.32 51.98 50.24 48.72 47.14 45.55 45.46 45.13 44.47 42.69 43.90 43.33 42.42 41.86 37.86 38.37 40.90 41.88 42.36 41.71 41.01 41.34 40.72 41.21 42.39 43.45 47.11 47.10 47.62 48.07 47.30 46.58 46.30 46.10 45.84 46.14 46.89 47.84 48.54 49.10 49.53 49.96 50.41
53.72 51.81 49.86 48.64 46.82 45.53 44.38 44.48 44.19 42.88 41.16 42.13 44.82 44.44 40.67 39.88 38.05 40.38 40.14 40.33 39.78 39.94 40.04 39.92 40.46 41.73 45.17 43.38 43.08 40.27 41.13 41.90 43.01 43.36 43.95 44.77 45.48 46.34 47.16 47.72 48.15 48.68 49.21
51.94 51.44 49.66 48.75 47.08 45.41 44.73 44.25 44.14 43.56 43.33 39.61 41.36 42.50 43.16 43.92 39.45 34.03 38.91 39.08 39.05 38.81 39.28 39.39 39.29 40.10 43.72 42.62 39.32 36.84 37.71 38.26 38.71 39.91 40.86 41.96 43.24 44.35 45.42 46.21 46.77 47.38 47.89
49.76 50.09 49.48 48.43 46.90 45.35 44.58 43.95 42.78 42.77 43.44 42.28 40.23 40.15 39.86 40.66 42.11 41.42 35.10 35.50 37.98 38.41 38.94 38.81 39.10 39.15 41.66 40.49 38.41 34.75 35.54 36.63 36.82 37.24 38.10 39.02 40.56 42.04 43.46 44.51 45.43 46.00 46.42
47.46 47.42 48.00 47.61 46.77 45.42 44.07 43.78 42.91 42.30 42.29 42.86 41.85 41.91 39.95 38.85 37.89 39.29 39.54 36.54 35.22 36.59 37.94 37.87 38.20 38.63 39.89 40.03 37.90 34.07 33.45 34.70 35.72 36.10 36.28 36.75 37.92 39.10 40.56 42.25 43.40 44.09 44.70
45.52 45.09 45.82 45.53 45.16 45.13 44.14 43.68 42.56 41.49 41.70 41.35 42.06 41.36 41.40 41.52 42.35 40.57 40.53 37.09 35.79 35.88 36.00 36.97 37.27 38.22 38.88 38.35 34.65 33.26 31.89 32.84 34.22 35.27 35.38 35.72 36.46 37.32 38.19 39.79 40.92 41.71 42.33
45.05 45.73 44.67 44.60 44.22 44.02 43.65 42.83 42.06 41.41 41.26 41.06 40.93 41.68 40.98 41.10 41.12 40.07 38.96 36.26 33.96 33.20 34.18 34.06 36.82 37.45 37.78 36.65 35.28 32.27 31.55 31.69 32.86 34.55 34.96 35.27 35.83 36.71 37.56 38.75 39.53 40.04 40.70
42.73 43.28 43.78 42.90 42.59 42.53 42.14 41.81 40.62 40.06 39.92 40.21 40.09 40.36 39.88 40.06 40.15 39.79 39.84 38.82 36.27 31.23 30.84 34.22 32.82 36.52 36.66 35.69 32.55 30.53 32.22 32.59 32.32 33.83 34.28 34.81 35.29 36.31 37.36 37.92 38.32 38.81 39.58
40.30 40.62 41.05 41.24 40.99 40.73 40.49 39.92 39.38 39.27 38.59 38.73 38.99 38.68 38.80 39.06 39.05 39.00 38.55 38.00 38.40 37.62 33.57 34.63 34.03 34.54 35.31 33.91 33.57 31.07 31.38 32.41 31.35 32.95 33.34 33.98 34.64 35.88 36.74 36.65 37.19 37.77 38.26
38.00 37.67 38.01 38.13 38.57 38.64 39.38 38.77 37.89 37.85 37.13 37.19 37.38 37.38 37.32 37.99 37.41 37.04 36.65 36.22 35.09 36.09 37.37 30.93 34.15 34.48 33.31 31.57 30.12 29.48 30.75 29.58 30.05 32.27 32.70 33.54 34.22 35.41 35.55 35.49 35.81 36.49 36.91
36.63 36.39 36.43 35.95 36.15 36.89 37.48 36.86 36.46 35.53 35.83 35.50 35.93 35.42 35.61 35.52 36.00 36.14 35.34 34.26 33.78 34.17 34.93 28.47 30.37 30.49 31.08 31.40 28.79 27.19 27.16 28.40 29.70 32.73 32.91 33.33 34.08 35.01 34.57 34.56 34.81 35.07 35.36
33.75 35.03 34.82 34.79 34.89 34.95 35.33 35.89 35.42 35.09 35.21 35.35 35.40 34.95 34.38 34.75 33.70 34.58 34.32 33.55 33.13 29.63 33.03 30.37 27.21 28.69 28.83 30.01 28.12 27.53 27.88 27.48 27.87 30.92 32.96 32.88 33.67 34.26 34.05 34.14 34.27 34.22 33.85
31.88 32.67 33.05 33.04 33.45 33.74 33.40 33.71 33.40 34.00 34.14 34.46 34.82 34.64 34.67 33.82 33.70 33.48 33.15 33.07 32.36 31.18 31.31 30.57 26.60 26.47 26.15 26.86 26.57 25.04 24.47 27.02 26.99 28.36 29.72 30.64 31.62 32.42 32.98 33.59 33.39 32.56 31.82
30.33 31.13 31.09 31.79 32.06 32.15 31.79 32.12 32.21 32.32 32.14 32.62 33.49 33.18 33.58 33.77 34.23 34.45 32.93 32.55 31.58 31.19 29.93 28.95 26.93 25.19 24.72 23.40 23.17 25.46 25.46 26.36 27.06 28.58 26.92 27.58 27.66 28.04 29.10 32.14 30.90 30.94 31.07
28.47 29.06 28.80 29.47 30.08 30.66 33.27 34.31 33.84 31.96 31.21 30.68 30.62 32.11 31.98 31.71 32.70 35.09 36.09 36.24 33.74 31.35 29.72 28.88 27.98 25.98 25.14 25.33 25.09 25.11 25.34 25.50 23.29 29.27 27.23 26.83 27.99 27.48 27.70 27.83 31.17 31.41 31.25
26.41 26.48 27.47 28.33 28.42 29.78 32.50 33.50 34.34 32.20 31.34 31.04 30.37 30.35 30.56 30.67 30.55 30.82 34.27 35.57 35.45 36.22 35.74 31.24 29.46 28.13 26.64 26.20 25.78 25.96 25.43 25.68 26.10 26.80 27.29 24.93 26.71 24.87 27.15 27.50 31.10 31.17 30.98
24.11 24.27 25.41 26.86 27.46 28.28 31.39 32.46 33.32 32.20 31.64 31.52 31.47 30.84 30.20 30.25 30.38 29.29 29.31 30.95 31.53 31.37 33.07 32.74 31.78 31.43 30.02 28.48 28.26 27.98 27.22 27.29 26.25 24.72 25.32 21.34 25.24 23.74 25.98 26.90 30.42 30.78 30.85
21.88 22.15 23.42 23.58 24.49 26.41 30.02 30.99 31.11 31.16 30.82 30.77 31.26 31.63 30.96 30.39 32.19 33.36 28.48 28.86 29.53 30.16 32.88 35.09 34.12 34.30 32.61 31.87 30.40 27.50 24.61 23.42 22.27 22.38 24.05 22.09 22.85 22.98 24.18 23.78 25.32 29.50 30.46
20.51 21.13 20.84 21.95 22.55 23.15 27.93 29.65 29.85 29.62 29.58 29.88 30.90 30.93 31.24 31.20 32.87 33.55 29.53 28.22 27.35 28.57 28.28 28.94 28.72 30.27 30.56 30.53 31.75 28.09 26.33 22.97 21.82 19.76 23.04 20.11 20.78 21.55 19.32 24.22 24.86 25.92 26.10
MSLP
1015.98 1016.47 1016.78 1017.06 1017.48 1018.14 1018.56 1019.13 1019.53 1019.94 1020.12 1020.30 1020.45 1020.58 1020.68 1020.75 1020.83 1020.76 1020.91 1021.22 1021.03 1020.55 1020.45 1020.42 1020.33 1020.28 1020.34 1020.41 1020.43 1020.62 1020.82 1021.06 1020.92 1020.93 1021.05 1020.82 1020.57 1020.48 1020.74 1020.73 1020.87 1020.81 1020.75
1015.34 1015.79 1016.38 1016.82 1017.34 1017.79 1018.31 1018.86 1019.32 1019.66 1019.94 1020.27 1020.55 1020.73 1020.93 1021.05 1021.15 1021.14 1020.98 1021.17 1021.20 1020.93 1020.68 1020.66 1020.61 1020.48 1020.72 1020.84 1021.06 1021.14 1021.33 1021.63 1021.49 1021.49 1021.57 1021.45 1021.10 1021.14 1021.14 1021.26 1021.31 1021.23 1021.14
1014.97 1015.46 1015.96 1016.47 1017.06 1017.81 1018.36 1018.70 1019.06 1019.46 1019.87 1020.28 1020.65 1021.03 1021.21 1021.30 1021.25 1021.28 1021.25 1021.14 1021.33 1021.48 1021.23 1020.90 1020.94 1020.94 1021.15 1021.40 1021.23 1021.26 1021.75 1021.89 1021.74 1021.82 1021.95 1021.71 1021.47 1021.39 1021.41 1021.57 1021.68 1021.52 1021.37
1014.80 1015.19 1015.58 1016.08 1016.53 1017.35 1018.00 1018.39 1018.83 1019.31 1019.72 1020.17 1020.58 1020.95 1021.18 1021.38 1021.48 1021.41 1021.37 1021.21 1021.29 1021.46 1021.88 1021.90 1021.86 1021.84 1021.81 1021.57 1021.54 1021.78 1022.10 1021.96 1022.28 1022.36 1022.12 1021.95 1021.88 1021.88 1022.04 1021.94 1021.78 1021.68 1021.55
1014.42 1015.02 1015.48 1015.92 1016.41 1017.09 1017.51 1017.90 1018.38 1018.75 1019.23 1019.80 1020.25 1020.67 1020.96 1021.32 1021.56 1021.46 1021.52 1021.56 1021.93 1021.83 1022.07 1022.68 1022.73 1022.63 1022.43 1022.16 1022.00 1022.12 1022.26 1022.44 1022.64 1022.58 1022.64 1022.69 1022.55 1022.44 1022.42 1022.31 1022.25 1022.15 1021.93
1014.19 1014.67 1015.20 1015.82 1016.57 1017.22 1017.50 1017.81 1018.21 1018.64 1018.94 1019.38 1019.93 1020.62 1021.00 1021.16 1021.44 1021.51 1021.73 1022.05 1022.27 1022.33 1022.40 1022.61 1022.78 1022.86 1022.66 1022.34 1022.25 1022.30 1022.47 1022.72 1023.06 1023.28 1023.18 1023.18 1023.00 1022.80 1022.75 1022.63 1022.58 1022.56 1022.35
1013.77 1014.28 1014.68 1015.25 1016.17 1016.87 1017.36 1017.71 1018.03 1018.52 1018.94 1019.46 1020.15 1020.79 1021.05 1021.19 1021.22 1021.21 1021.44 1021.81 1022.35 1022.66 1022.85 1022.90 1023.00 1022.86 1022.77 1022.58 1022.42 1022.43 1022.84 1023.26 1023.54 1023.57 1023.53 1023.40 1023.39 1023.18 1023.13 1023.03 1022.88 1022.77 1022.61
1013.55 1014.06 1014.34 1014.54 1015.21 1016.17 1016.99 1017.50 1017.92 1018.44 1018.81 1019.10 1019.17 1019.82 1020.55 1021.25 1021.17 1021.10 1021.24 1021.50 1021.95 1022.43 1022.77 1022.95 1023.10 1023.16 1022.82 1023.04 1023.24 1023.36 1023.63 1023.85 1023.97 1023.87 1023.90 1023.83 1023.67 1023.48 1023.36 1023.22 1023.14 1022.97 1022.81
1013.27 1013.66 1014.00 1014.32 1014.71 1014.99 1015.34 1016.17 1017.05 1017.66 1017.93 1018.65 1018.28 1018.25 1019.24 1019.35 1020.31 1020.96 1021.32 1021.49 1021.66 1021.93 1022.13 1022.56 1022.88 1023.08 1022.94 1023.42 1023.87 1024.34 1024.32 1024.34 1024.32 1024.34 1024.27 1024.13 1023.92 1023.73 1023.68 1023.53 1023.37 1023.22 1022.89
1013.33 1013.62 1013.93 1013.91 1013.97 1014.33 1014.99 1015.59 1016.12 1016.64 1017.22 1017.76 1018.46 1017.91 1018.37 1018.39 1018.99 1020.57 1021.14 1021.46 1021.73 1021.75 1021.86 1022.28 1022.62 1022.82 1022.77 1023.26 1023.83 1024.41 1024.65 1024.71 1024.72 1024.66 1024.55 1024.38 1024.15 1023.94 1023.77 1023.75 1023.61 1023.36 1023.17
1013.39 1013.28 1013.59 1013.83 1014.07 1014.24 1014.08 1014.34 1015.01 1015.56 1016.24 1017.02 1017.33 1017.66 1018.17 1018.28 1018.17 1018.29 1019.81 1020.72 1021.34 1021.37 1021.57 1021.85 1022.34 1022.80 1022.92 1023.27 1023.70 1024.30 1024.35 1024.42 1024.54 1024.58 1024.60 1024.52 1024.30 1024.12 1024.00 1024.01 1023.86 1023.62 1023.37
1013.03 1013.20 1013.33 1013.60 1013.72 1013.98 1014.21 1014.25 1014.45 1014.78 1014.88 1015.08 1016.19 1017.30 1017.33 1017.38 1017.36 1017.34 1017.68 1019.27 1019.87 1020.45 1020.88 1021.48 1021.87 1022.22 1022.64 1023.05 1023.53 1024.15 1024.31 1024.20 1024.10 1024.15 1024.19 1024.22 1024.12 1024.05 1024.03 1023.91 1023.78 1023.76 1023.63
1012.80 1013.02 1013.13 1013.21 1013.47 1013.66 1013.94 1014.17 1014.31 1014.26 1014.34 1014.66 1014.75 1014.74 1015.72 1016.41 1016.56 1016.89 1016.96 1018.23 1018.98 1020.07 1020.67 1021.02 1021.18 1021.44 1021.93 1022.38 1023.02 1023.59 1024.00 1024.13 1024.05 1023.92 1023.84 1023.87 1023.94 1023.93 1023.84 1023.75 1023.62 1023.68 1023.61
1012.38 1012.54 1012.94 1013.03 1013.09 1013.35 1013.55 1013.86 1013.94 1014.10 1014.27 1014.42 1014.52 1014.74 1014.87 1015.11 1015.67 1015.96 1016.24 1017.33 1018.69 1019.54 1020.11 1020.19 1020.73 1021.01 1021.35 1021.77 1022.30 1022.99 1023.29 1023.59 1023.73 1023.96 1023.88 1023.72 1023.83 1023.90 1023.84 1023.65 1023.60 1023.48 1023.44
1013.05 1012.66 1012.52 1012.78 1013.18 1013.13 1013.15 1013.21 1013.62 1013.78 1013.73 1013.69 1013.89 1014.33 1014.61 1014.62 1014.85 1015.38 1016.03 1016.19 1016.66 1018.07 1018.59 1018.97 1019.68 1020.28 1020.93 1021.55 1022.10 1022.50 1022.55 1022.99 1023.26 1023.48 1023.73 1023.91 1023.75 1023.76 1023.71 1023.61 1023.67 1023.47 1023.36
1013.69 1013.37 1012.77 1012.60 1012.76 1013.15 1013.15 1012.92 1012.86 1013.23 1013.46 1013.54 1013.50 1013.49 1013.66 1014.23 1014.50 1014.59 1015.07 1015.79 1015.93 1016.32 1017.27 1017.59 1018.21 1018.90 1019.87 1020.76 1021.45 1021.94 1022.18 1022.52 1022.80 1022.92 1023.29 1023.63 1023.71 1023.75 1023.62 1023.55 1023.62 1023.58 1023.36
1014.23 1013.70 1013.28 1013.00 1012.78 1012.72 1012.70 1012.97 1012.78 1012.58 1012.62 1012.96 1012.96 1013.02 1012.86 1013.15 1013.65 1014.24 1014.59 1015.04 1015.52 1016.05 1016.48 1017.12 1017.67 1018.55 1019.34 1019.99 1020.80 1021.31 1021.65 1022.11 1022.21 1022.34 1022.49 1023.06 1023.29 1023.45 1023.43 1023.36 1023.40 1023.57 1023.39
1014.27 1013.85 1013.48 1013.17 1012.74 1012.61 1012.59 1012.50 1012.54 1012.46 1012.15 1012.39 1012.47 1012.30 1012.16 1012.58 1012.78 1013.19 1013.64 1014.32 1014.98 1015.27 1016.06 1017.16 1017.36 1018.23 1018.71 1019.24 1020.14 1021.01 1021.48 1021.81 1022.01 1021.98 1022.16 1022.14 1022.45 1022.65 1022.92 1023.08 1023.09 1023.05 1022.77
1014.48 1013.80 1013.50 1013.15 1012.58 1012.40 1012.30 1012.34 1012.14 1011.96 1011.73 1011.46 1011.74 1011.89 1011.65 1011.60 1011.72 1012.12 1012.61 1013.23 1013.87 1014.89 1015.45 1016.07 1017.17 1017.67 1018.31 1018.48 1019.32 1020.27 1020.97 1021.59 1021.94 1021.98 1022.18 1022.12 1022.12 1021.80 1021.83 1022.51 1022.69 1022.97 1022.77
1014.91 1014.26 1013.61 1013.30 1012.85 1012.24 1012.18 1012.07 1011.85 1011.44 1011.22 1010.71 1010.61 1010.74 1010.94 1010.78 1010.66 1011.05 1011.31 1011.99 1012.70 1013.76 1014.72 1015.15 1016.44 1017.06 1017.84 1018.48 1018.33 1018.93 1020.03 1020.68 1021.20 1021.36 1021.71 1022.00 1022.20 1021.96 1021.48 1021.84 1022.13 1022.36 1022.27
1014.82 1014.25 1013.60 1013.25 1012.77 1012.48 1012.01 1011.62 1011.41 1011.15 1010.87 1010.45 1009.75 1009.62 1009.92 1009.66 1010.02 1009.98 1010.02 1010.69 1011.50 1012.56 1013.61 1014.17 1015.04 1015.87 1016.82 1017.58 1018.01 1017.78 1018.35 1019.36 1020.26 1020.50 1021.10 1021.26 1021.88 1021.72 1021.64 1021.54 1021.67 1021.82 1021.67
1014.57 1014.02 1013.42 1013.07 1012.36 1011.98 1011.72 1011.23 1010.83 1010.53 1010.31 1010.11 1009.31 1008.74 1008.95 1009.02 1008.87 1009.01 1009.02 1009.23 1009.62 1010.66 1011.81 1012.50 1013.12 1013.45 1014.33 1015.38 1016.38 1017.13 1017.41 1018.22 1019.52 1019.62 1020.13 1020.51 1020.69 1020.64 1020.66 1020.92 1021.21 1021.25 1021.18
1014.43 1013.85 1013.25 1012.59 1011.90 1011.28 1010.88 1010.55 1010.08 1009.72 1009.31 1008.79 1008.46 1008.13 1008.03 1008.04 1008.15 1008.00 1008.05 1008.52 1008.71 1008.78 1009.21 1009.86 1010.46 1011.29 1012.40 1013.21 1014.54 1015.99 1016.29 1016.26 1016.66 1018.00 1018.82 1019.86 1020.01 1020.02 1019.96 1020.18 1020.52 1020.71 1020.43
1014.07 1013.39 1012.62 1011.93 1011.19 1010.45 1009.82 1009.45 1009.19 1008.63 1008.14 1007.65 1007.26 1006.97 1007.14 1007.38 1007.05 1006.97 1007.28 1007.68 1007.82 1008.14 1008.26 1008.63 1008.63 1009.50 1010.46 1011.53 1012.50 1013.76 1015.04 1016.22 1016.76 1017.32 1018.00 1018.99 1019.17 1019.16 1019.24 1019.23 1019.60 1020.08 1019.97
1013.57 1012.80 1012.03 1011.11 1010.46 1009.28 1008.95 1008.56 1008.23 1007.67 1006.82 1006.18 1005.84 1005.76 1005.66 1005.73 1006.11 1006.28 1006.21 1006.47 1007.35 1006.98 1007.67 1008.01 1008.46 1009.04 1009.40 1010.15 1011.27 1013.47 1014.72 1016.00 1016.51 1016.92 1017.41 1017.73 1018.28 1018.41 1018.78 1018.94 1019.04 1019.42 1019.70
1012.78 1012.11 1011.13 1010.38 1009.58 1008.55 1007.79 1007.34 1007.06 1006.55 1005.69 1004.94 1004.61 1004.22 1004.05 1003.95 1004.72 1005.27 1005.33 1005.47 1005.89 1006.01 1007.11 1007.92 1008.62 1008.85 1009.33 1009.53 1010.35 1011.49 1012.86 1014.04 1014.91 1016.20 1016.30 1017.41 1017.64 1018.33 1018.79 1018.67 1018.85 1019.27 1019.76
Wind_Speed
9 8 8 7 7 7 6 6 5 5 4 4 3 2 2 2 2 1 2 5 11 5 1 2 3 5 5 7 10 10 10 8 7 10 11 13 13 12 11 11 11 11 11
9 9 8 8 8 7 7 6 6 5 5 4 4 2 2 1 1 1 1 4 11 12 2 2 2 4 7 7 5 6 9 8 6 8 10 9 10 10 10 11 12 12 12
11 11 9 8 8 6 7 6 6 5 5 4 4 3 2 2 2 2 2 2 5 13 14 9 10 8 7 3 4 10 9 3 5 10 7 7 8 9 8 11 11 11 11
12 11 9 9 9 8 8 7 7 6 6 5 5 5 3 3 2 3 3 2 3 4 8 11 10 8 4 2 6 9 4 8 8 7 7 9 10 9 7 9 10 11 12
13 10 8 8 10 8 8 8 8 8 7 6 6 4 4 4 3 4 4 4 3 1 3 6 7 8 5 4 3 6 6 7 6 8 9 7 9 9 8 9 9 9 9
13 11 8 9 9 7 8 8 9 7 7 7 6 5 4 4 4 4 5 4 3 3 3 3 2 3 4 2 4 6 7 7 6 6 7 7 7 8 8 8 8 8 8
13 12 9 10 9 8 8 9 7 9 6 7 6 4 3 4 5 4 5 5 4 4 3 3 1 1 2 3 4 7 8 4 5 4 5 6 6 6 7 7 7 8 8
11 11 11 11 12 9 10 10 10 8 5 9 5 5 4 4 4 6 5 5 6 4 4 3 3 3 3 6 7 10 6 4 3 4 4 4 5 6 6 7 8 8 9
10 12 13 11 12 11 11 13 12 13 8 9 9 4 4 4 6 5 6 6 7 6 6 5 6 5 5 7 6 7 5 3 3 4 4 5 6 7 7 7 8 8 9
10 11 12 13 13 11 12 11 11 11 10 9 6 6 2 0 4 4 6 7 7 7 6 5 6 6 6 7 9 7 4 3 3 3 4 5 5 6 7 7 8 8 9
9 11 13 13 11 10 12 14 15 14 10 8 8 4 4 3 3 3 5 6 6 6 5 6 6 6 7 8 7 6 6 5 4 2 3 4 5 6 7 7 8 9 9
6 10 11 11 11 11 12 11 13 15 13 12 10 5 5 5 5 4 3 7 8 8 7 6 7 7 7 6 6 9 5 5 5 4 2 1 2 3 4 5 6 8 9
4 7 10 11 10 12 11 11 12 13 15 12 11 11 9 8 2 4 2 4 4 3 5 6 7 7 8 7 8 9 9 6 6 5 4 3 2 1 1 3 4 5 6
4 6 7 9 11 12 12 11 9 10 12 11 14 11 8 8 4 4 5 7 4 3 5 4 8 8 8 8 10 14 7 9 7 6 6 5 4 4 4 5 5 5 6
7 6 6 8 10 12 12 12 10 11 11 12 13 12 9 7 5 5 4 6 6 7 10 10 6 10 8 7 9 7 6 12 9 8 8 7 6 6 7 7 7 6 6
10 10 7 7 7 10 11 11 10 10 12 10 10 14 13 9 7 7 6 4 3 5 5 3 7 9 11 8 9 7 6 8 10 10 10 9 8 8 9 8 8 8 8
9 9 8 7 7 9 10 11 11 11 13 13 13 14 15 13 10 8 6 5 4 3 2 2 7 9 12 10 8 7 5 6 6 15 14 12 10 11 10 9 9 10 10
10 9 9 7 7 8 9 10 12 10 13 14 14 14 15 10 14 12 9 10 7 6 4 5 5 6 9 11 9 8 5 4 5 12 16 15 13 12 11 11 10 10 10
11 10 9 10 8 7 9 11 12 13 14 15 15 16 15 15 15 13 12 11 9 5 5 5 4 4 3 9 8 6 5 6 5 10 14 14 14 14 13 13 12 13 12
9 9 9 9 10 10 9 10 10 13 14 14 15 16 16 18 18 17 14 14 11 10 9 6 4 7 6 7 7 9 6 5 5 6 10 10 12 15 14 15 15 14 12
9 9 9 9 9 9 8 10 11 13 14 16 16 15 17 19 22 20 14 15 14 12 10 10 7 5 8 7 12 8 7 6 7 6 6 7 6 6 8 15 11 12 10
11 10 10 10 10 7 15 19 17 13 14 15 16 16 16 18 22 25 28 26 21 19 16 13 12 13 15 11 11 9 8 6 6 8 7 7 6 6 5 4 10 10 9
12 11 13 11 12 11 17 19 19 13 15 16 16 15 15 14 17 18 26 27 28 31 28 19 19 16 14 16 14 13 12 11 6 7 8 5 4 6 5 5 11 11 10
13 13 13 14 14 12 20 20 20 14 15 17 18 17 17 18 17 17 16 18 21 19 22 16 18 16 13 15 15 14 13 8 6 7 5 5 4 4 4 3 9 12 13
13 14 14 16 15 16 23 23 20 13 15 17 16 17 18 19 22 24 18 19 20 20 19 24 17 16 21 27 20 11 11 10 4 4 7 4 3 2 1 3 4 12 11
15 13 17 16 18 20 26 27 22 11 15 13 14 17 23 23 25 25 19 18 20 19 14 14 12 14 17 20 26 16 13 13 6 4 7 7 4 3 2 2 1 2 2
Wind_Direction
188 189 192 183 180 174 179 174 172 171 158 149 137 117 78 53 45 47 77 27 9 345 86 109 130 118 107 87 89 97 92 88 86 76 65 63 67 81 74 68 63 56 51
188 187 187 188 185 180 175 178 174 169 164 149 138 123 108 93 62 105 80 90 42 24 52 90 151 155 102 92 92 106 96 73 70 82 61 52 67 72 68 63 48 40 37
193 188 187 184 186 174 173 172 168 163 156 157 151 155 157 153 145 138 141 151 114 49 39 57 64 79 77 93 184 116 87 106 118 86 64 65 73 64 71 59 38 33 33
200 193 188 187 180 172 177 176 172 170 172 171 161 166 163 160 158 161 162 172 114 113 66 44 48 51 34 113 102 89 94 79 74 69 67 65 59 55 47 39 38 34 34
203 195 194 187 178 178 184 180 176 176 171 173 165 153 159 162 173 171 161 147 93 154 108 59 46 26 352 55 92 116 107 88 78 67 59 54 47 42 34 31 29 28 26
200 199 194 184 177 185 186 184 178 183 172 161 154 152 168 164 181 165 161 159 161 156 161 149 187 74 10 102 133 137 123 97 68 56 53 47 41 35 28 25 21 15 14
200 202 195 184 176 188 191 185 172 174 173 151 133 143 159 183 195 176 173 166 166 185 160 160 178 166 129 158 159 131 95 105 74 69 59 50 36 27 18 13 12 10 7
204 204 201 191 178 182 190 188 182 168 177 176 175 149 169 189 212 198 187 181 176 173 175 185 158 204 229 83 71 68 76 75 58 49 37 34 31 25 17 13 10 10 8
210 208 206 202 188 187 187 184 186 184 175 193 220 166 154 211 142 181 201 195 180 187 173 166 173 182 212 112 109 86 76 68 56 39 34 25 23 21 15 13 10 7 10
230 223 219 215 199 192 194 190 186 190 186 186 211 252 260 341 180 166 204 204 200 198 178 176 173 181 190 146 100 99 115 96 75 47 32 24 19 19 17 11 7 4 3
231 237 224 229 221 212 201 187 186 192 198 194 205 149 207 235 283 163 159 183 207 207 185 183 175 183 193 147 164 140 149 142 129 92 33 20 17 16 12 3 359 358 358
226 234 237 233 227 220 215 203 195 195 198 196 182 201 206 179 194 195 148 167 184 195 185 187 186 184 189 178 171 146 164 155 152 152 142 81 32 21 8 357 356 351 350
241 244 234 227 230 228 221 216 208 203 202 203 194 190 191 215 195 215 131 150 161 130 190 194 197 185 184 182 164 181 177 174 178 185 189 193 210 250 306 314 325 327 331
279 259 252 238 229 232 229 222 217 214 212 214 215 212 204 204 178 197 180 149 157 152 186 175 193 191 186 182 176 184 183 183 193 218 220 211 222 236 244 268 290 301 311
308 298 274 244 243 236 230 223 220 222 219 210 212 214 217 205 182 191 234 186 156 178 201 187 171 190 184 186 171 185 194 179 195 214 226 232 234 240 250 269 277 288 302
321 307 290 274 241 245 241 227 222 223 222 223 219 214 210 213 201 188 187 212 240 164 182 155 194 172 179 178 179 198 189 170 204 218 226 232 242 248 262 272 283 290 295
332 317 305 289 267 251 237 238 236 230 226 226 223 223 217 206 204 199 189 192 202 213 171 67 168 164 176 179 166 191 197 193 210 209 213 222 232 238 252 260 268 277 294
339 334 319 294 272 269 259 244 238 232 238 233 230 222 221 208 214 204 191 193 197 193 160 157 164 159 188 184 179 183 197 214 232 210 214 213 218 228 241 253 261 275 278
337 337 330 317 303 279 266 258 245 244 238 235 236 236 224 212 209 203 200 195 185 169 198 148 160 154 172 177 175 178 188 194 224 238 231 229 229 226 229 244 256 267 268
328 327 321 313 304 297 284 270 261 254 249 243 237 234 233 226 216 207 201 199 186 179 185 167 154 170 172 186 179 176 187 199 210 208 230 241 231 228 232 237 249 249 251
315 313 313 305 293 285 278 277 269 263 254 253 245 236 235 229 229 215 202 199 187 186 189 188 178 163 183 164 198 185 180 171 206 192 205 210 217 224 236 239 239 233 237
312 310 306 298 296 284 279 273 269 262 258 254 252 246 239 235 229 221 220 207 197 188 196 193 196 200 193 188 179 182 173 158 198 194 197 224 193 217 216 219 229 237 256
300 300 297 294 291 286 283 280 273 262 258 254 254 253 248 240 229 225 222 219 212 211 205 196 198 204 191 183 167 179 190 184 167 155 172 200 191 220 212 218 245 255 268
299 295 290 291 288 285 288 285 278 263 259 255 250 245 248 247 233 219 214 219 221 214 216 208 211 202 199 176 178 182 183 170 107 135 142 181 182 202 188 211 259 273 278
293 291 287 287 282 280 283 283 282 268 259 256 252 247 241 245 244 225 213 217 219 225 220 221 213 199 180 173 165 147 166 167 174 179 179 159 169 150 55 281 273 276 267
282 286 285 281 278 277 275 274 274 264 264 259 255 249 241 239 241 233 222 216 220 220 202 204 199 198 188 178 174 180 171 178 152 156 172 171 149 138 184 156 233 214 206